Regional Weather Roundup
Issued by NWS

Home | Current Version | Previous Version | Graphics & Text | Print | Product List | Glossary On
Versions: 1 2 3 4 5 6 7 8 9 10 11 12 13 14 15 16 17 18 19 20 21 22 23 24 25 26 27 28 29 30 31 32 33 34 35 36 37 38 39 40 41 42 43 44 45 46 47 48 49 50
000
ASUS43 KLOT 191103
RWRIL

ILLINOIS REGIONAL WEATHER ROUNDUP
NATIONAL WEATHER SERVICE CHICAGO/ROMEOVILLE IL
500 AM CST THU JAN 19 2017

NOTE: "FAIR" INDICATES FEW OR NO CLOUDS BELOW 12,000 FEET WITH NO
SIGNIFICANT WEATHER AND/OR OBSTRUCTIONS TO VISIBILITY.

* THESE STATIONS ARE NOT UNDER NWS QUALITY CONTROL. THEY ALSO MAY NOT
  REPORT WEATHER SUCH AS PRECIPITATION OR FOG.

ILZ001-002-007-009-015-016-024-191200-
NORTHWEST ILLINOIS

CITY           SKY/WX    TMP DP  RH WIND       PRES   REMARKS
MOLINE         CLEAR     27  24  89 E6        29.96S FOG     WCI  20
STERLING*      CLOUDY    33  33 100 SE5       29.99F FOG     WCI  29
SAVANNA*       PTCLDY    30  30  99 CALM      29.97F FOG
$$

ILZ003-004-008-010-011-017-018-191200-
NORTH CENTRAL ILLINOIS

CITY           SKY/WX    TMP DP  RH WIND       PRES   REMARKS
ROCKFORD       PTCLDY    30  29  96 SE5       30.00F FOG     WCI  25
FREEPORT*      CLOUDY    31  30  96 CALM      29.98F FOG
ROCHELLE*      CLOUDY    32  32 100 SE6       30.00F FOG     WCI  26
DE KALB*       FOG       32  32  99 S6        30.00F VSB 1/4 WCI  26
$$

ILZ005-006-012>014-019>023-191200-
NORTHEAST ILLINOIS

CITY           SKY/WX    TMP DP  RH WIND       PRES   REMARKS
CHICAGO-OHARE  CLOUDY    33  33 100 S5        30.01F FOG     WCI  29
CHICAGO-MIDWAY CLOUDY    32  31  96 S6        30.03S FOG     WCI  26
AURORA         FOG       32  31  96 SE3       30.02F VSB 1/4
LANSING*       CLOUDY    33  33 100 S3        30.04F FOG
JOLIET*        CLOUDY    35  34  99 CALM      30.04S FOG
WAUKEGAN       FOG       33  33 100 SW9       30.00S VSB 3/4 WCI  25
DUPAGE AIRPORT FOG       32  31  96 S6        30.00F VSB 1   WCI  26
KANKAKEE*      CLOUDY    33  33  96 CALM      30.05F FOG
WHEELING       CLOUDY    34  33  96 SW5       30.03S FOG     WCI  30
MORRIS*        CLOUDY    33  32  97 CALM      30.01F FOG
ROMEOVILLE*    CLOUDY    32  32 100 S6        30.03F FOG     WCI  27
NORTHERLY ISL    N/A     34  32  92 S6          N/A  WCI  29
$$

LMZ740>746-191200-
SOUTHERN LAKE MICHIGAN

STATION/POSITION SKY/WX   TEMP    WIND        PRES    VSBY  WAVE
                          AIR SEA DIR/SP/G                  HT/PER
                          (F)     (DEG/KT/KT) (MB)    (MI)  (FT/S)
HARRISON CRIB              35     190/ 17/ 18   N/A
BURNHAM HARBOR             35     170/  5/ 10   N/A
CALUMET HARBOR             34     180/  6/  8 1016.6S
BURNS HARBOR               35     180/ 11/ 14 1017.6F
$$

ILZ025>027-034>036-040-047-049-050-058-095>099-191200-
WEST-CENTRAL ILLINOIS

CITY           SKY/WX    TMP DP  RH WIND       PRES   REMARKS
QUINCY         CLOUDY    38  35  89 SE8       29.94F WCI  32
GALESBURG*     PTCLDY    33  33 100 E6        29.97S FOG     WCI  27
MACOMB*        CLOUDY    33  33  99 SE3       29.99F FOG
JACKSONVILLE*  CLOUDY    38  37  93 SE7       29.97F FOG     WCI  33
PITTSFIELD*    CLOUDY    39  38  96 SE5       29.96F FOG
$$

ILZ028>032-037-038-041>044-048-051>054-059>061-191200-
CENTRAL ILLINOIS

CITY           SKY/WX    TMP DP  RH WIND       PRES   REMARKS
BLOOMINGTON    CLOUDY    34  33  96 S10       30.02F FOG     WCI  26
DECATUR        CLOUDY    37  37 100 SE6       30.02F WCI  32
PEORIA         CLOUDY    36  35  96 SE6       30.00F FOG     WCI  31
LACON*         CLOUDY    34  34 100 SE5       30.00F FOG     WCI  29
LINCOLN*       LGT RAIN  37  37  99 SE8       30.00F WCI  31
SPRINGFIELD    CLOUDY    41  37  86 SE8       29.99F
TAYLORVILLE    CLOUDY    39  37  93 E5        30.00F
$$

ILZ033-039-045-046-055>057-062-063-191200-
EAST-CENTRAL ILLINOIS

CITY           SKY/WX    TMP DP  RH WIND       PRES   REMARKS
CHAMPAIGN      CLOUDY    34  33  96 E8        30.02F FOG     WCI  27
MATTOON        CLOUDY    37  35  92 SE7       30.02F FOG     WCI  32
PARIS*         CLOUDY    36  35  98 SE5       30.06S FOG     WCI  32
$$

ILZ079-100>102-191200-
SOUTHWEST ILLINOIS

CITY           SKY/WX    TMP DP  RH WIND       PRES   REMARKS
ALTON          CLOUDY    40  38  93 E7        29.97F
BELLEVILLE     CLOUDY    42  41  99 E6        29.96F
CAHOKIA*       LGT RAIN  42  39  89 E7        29.95F FOG
SPARTA*        CLOUDY    41  39  93 E6        29.98F
$$

ILZ064>066-069>071-074>076-080>082-084>086-088>090-092>094-191200-
SOUTH-CENTRAL ILLINOIS

CITY           SKY/WX    TMP DP  RH WIND       PRES   REMARKS
CARBONDALE     CLOUDY    43  41  93 E6        29.98F
CAIRO*         CLOUDY    44  44 100 E8        29.95F FOG
EFFINGHAM*     LGT RAIN  39  39 100 E5        30.04F
MARION         CLOUDY    45  43  93 E5        29.99F
MT. VERNON     LGT RAIN  41  39  93 E6        30.00F
CENTRALIA*     CLOUDY    42  40  91 E5        29.98F
SALEM*         CLOUDY    42  38  86 E6        30.00F
METROPOLIS*    CLOUDY    45  43  91 E3        29.99F FOG
$$

ILZ067-068-072-073-078-083-087-091-191200-
SOUTHEAST ILLINOIS

CITY           SKY/WX    TMP DP  RH WIND       PRES   REMARKS
LAWRENCEVILLE  CLOUDY    39  38  96 E6        30.06F FOG     WCI  35
FLORA*         CLOUDY    41  38  91 E3        30.03F FOG
FAIRFIELD*     LGT RAIN  41  38  90 E3        30.01F
HARRISBURG*    LGT RAIN  43  40  91 E7        30.00F
ROBINSON*      CLOUDY    37  36  94 E6        30.07F WCI  33
CARMI*         CLOUDY    41  39  93 NE3       30.02F
$$

ABBREVIATIONS USED IN REMARKS
   TC - TEMPERATURE IN CELSIUS
  WCI - WIND CHILL INDEX
   HX - HEAT INDEX
  VSB - VISIBILITY
$$




USA.gov is the U.S. government's official web portal to all federal, state and local government web resources and services.